Cloud_Cover
100 100 100 100 100 100 100 100 100 100 100 97 99 34 5 4 9 85 23 0 0 0 0 0 0 0 100 45 93 100 100 98 100 100 100 90 90 86 37 100 100 30 69 100 100
100 100 100 100 100 100 100 100 100 100 100 95 54 4 2 1 30 25 1 0 0 0 0 0 0 0 6 31 98 100 100 98 78 100 76 96 100 100 71 100 100 26 75 87 100
100 100 100 100 100 100 100 100 100 100 100 24 6 0 0 2 0 0 0 0 0 0 0 0 0 0 4 22 100 100 100 100 53 63 74 100 100 100 94 100 100 63 81 32 100
100 100 100 100 100 100 100 100 100 100 86 33 0 0 0 0 0 0 0 0 0 22 23 0 0 16 97 50 92 74 100 100 100 97 97 83 83 100 100 100 100 61 59 94 98
100 100 100 100 100 100 100 100 100 90 42 5 0 0 28 23 0 0 1 0 32 100 30 0 0 0 14 2 100 97 100 100 100 100 100 29 86 6 100 68 42 62 12 59 87
100 100 100 100 100 100 100 100 90 38 3 5 0 0 1 16 0 0 21 2 93 100 82 83 33 2 0 27 84 22 100 100 100 100 100 100 42 94 78 27 92 92 97 89 58
100 100 100 100 100 100 100 100 99 38 5 1 2 0 67 0 0 0 0 19 5 100 100 70 70 53 38 36 20 100 100 100 80 100 100 100 100 100 94 46 100 77 92 100 66
21 79 100 98 89 89 99 44 5 48 4 0 16 87 7 0 0 0 0 0 14 100 100 100 94 25 39 30 95 97 100 100 99 100 100 100 100 99 100 51 100 100 38 92 99
5 12 51 73 9 8 5 5 4 1 0 1 89 15 34 1 0 0 0 0 25 100 100 32 94 33 52 96 91 99 69 99 100 100 94 54 100 100 97 59 99 100 98 100 89
99 93 100 100 100 11 5 9 4 1 14 68 76 50 20 2 0 0 0 0 6 41 94 100 100 83 95 100 93 95 94 100 100 100 99 6 87 100 100 93 100 100 100 100 87
100 100 100 100 85 100 5 10 88 85 94 4 1 0 0 10 0 13 15 37 100 100 100 72 100 100 100 60 30 36 100 100 100 100 50 18 7 100 100 100 100 59 100 100 100
100 98 100 100 97 82 76 2 0 0 93 0 0 1 2 0 68 82 14 60 100 88 100 100 100 9 100 64 100 100 100 100 100 100 78 100 16 100 100 95 94 100 73 100 100
100 98 98 100 100 100 16 1 0 0 0 6 0 2 3 0 0 13 83 90 100 100 100 100 80 7 51 100 100 100 90 100 100 100 100 96 46 100 75 8 95 100 100 100 100
100 100 100 100 100 66 49 5 4 1 5 1 39 0 0 4 1 0 10 97 75 71 87 55 6 32 97 100 100 100 100 100 100 100 100 100 62 72 92 6 15 88 72 100 100
100 100 100 100 100 98 5 5 5 2 59 0 15 0 0 0 0 44 0 66 81 45 70 60 86 6 44 62 99 68 100 100 100 100 100 100 100 96 100 5 16 92 100 96 100
100 100 100 100 100 100 96 91 100 79 4 0 9 3 66 2 0 61 53 33 95 70 17 10 84 100 7 50 100 100 100 100 100 100 100 70 100 94 100 100 14 30 54 96 100
100 100 100 100 100 100 100 100 100 74 0 82 47 95 9 46 15 16 91 100 100 100 100 100 100 52 100 94 90 99 100 100 100 100 85 100 97 9 100 87 28 81 14 8 98
100 100 100 100 100 100 100 100 92 0 0 45 6 100 94 47 47 88 90 100 23 98 96 83 100 100 100 56 35 98 100 100 100 100 100 100 100 3 100 91 7 37 99 100 77
100 100 100 100 100 100 100 95 2 1 0 58 73 100 86 6 10 60 41 32 20 100 83 99 77 67 100 74 100 100 100 82 100 100 100 93 100 3 100 100 100 100 100 100 100
100 100 100 100 100 100 100 3 3 0 0 5 5 50 93 82 81 16 8 4 6 100 94 83 97 96 100 100 100 100 100 100 100 100 100 10 99 44 70 100 100 100 100 100 98
100 100 100 100 100 100 88 5 1 1 0 2 5 22 5 75 5 100 82 38 4 5 8 100 96 100 100 100 100 100 100 100 100 100 56 94 100 100 100 100 100 100 100 100 97
100 100 100 100 100 100 100 6 10 40 0 0 2 1 0 8 100 88 42 6 63 5 36 5 43 100 100 100 100 100 100 100 100 100 100 100 100 100 100 100 100 100 100 100 100
100 100 100 100 100 100 100 100 51 7 0 1 5 3 2 5 58 97 100 24 7 54 58 93 98 100 100 100 100 100 100 100 100 100 100 100 100 95 79 100 100 100 100 100 100
100 100 100 100 100 75 99 97 80 10 5 0 2 0 5 10 3 36 95 4 5 5 70 88 93 83 4 0 33 92 100 98 94 100 100 100 100 100 62 91 100 100 100 100 100
100 100 100 100 100 100 100 23 62 56 21 0 7 4 5 38 5 5 5 17 3 0 72 99 100 99 19 96 9 94 100 100 100 30 100 36 100 100 100 100 100 100 100 100 100
100 100 100 100 100 100 100 99 61 75 4 1 5 5 0 4 0 5 2 0 0 25 98 83 22 100 100 100 99 100 100 100 100 5 66 35 99 100 100 100 34 100 100 100 100
100 100 100 100 100 96 64 90 86 8 93 100 100 100 98 50 43 0 0 0 0 5 19 67 99 100 100 100 100 100 35 100 89 93 8 36 100 100 100 100 95 83 100 100 100